| time (UTC) | temp F | wind direction | speed MPH | gust MPH | rain 1hr in | rain 24hr in | rain mn in | humidity % | barometer mb |
| 20260902134728 | 59 | 131 | 0.0 | 9.0 | 0.00 | 0.05 | 0.01 | 96 | 1002.5 |
| 20260902134228 | 58 | 119 | 0.0 | 9.0 | 0.00 | 0.05 | 0.01 | 96 | 1002.5 |
| 20260902133728 | 58 | 106 | 0.0 | 9.0 | 0.00 | 0.05 | 0.01 | 96 | 1002.5 |
| 20260902133228 | 58 | 170 | 0.0 | 5.0 | 0.01 | 0.07 | 0.01 | 96 | 1002.5 |
| 20260902132728 | 58 | 200 | 0.0 | 13.0 | 0.01 | 0.07 | 0.01 | 96 | 1002.6 |
| 20260902132228 | 58 | 198 | 0.0 | 13.0 | 0.01 | 0.07 | 0.01 | 96 | 1002.5 |
| 20260902131728 | 58 | 105 | 0.0 | 13.0 | 0.01 | 0.07 | 0.01 | 96 | 1002.7 |
| 20260902131228 | 58 | 75 | 0.0 | 11.0 | 0.01 | 0.07 | 0.01 | 96 | 1002.8 |
| 20260902130728 | 58 | 89 | 3.0 | 11.0 | 0.01 | 0.07 | 0.01 | 96 | 1002.8 |
| 20260902130228 | 59 | 133 | 0.0 | 11.0 | 0.01 | 0.07 | 0.01 | 95 | 1002.9 |
| 20260902125729 | 59 | 127 | 1.0 | 11.0 | 0.01 | 0.07 | 0.01 | 95 | 1003.0 |
| 20260902125228 | 59 | 119 | 0.0 | 9.0 | 0.01 | 0.07 | 0.01 | 93 | 1003.0 |
| 20260902124728 | 59 | 79 | 4.0 | 8.0 | 0.01 | 0.07 | 0.01 | 92 | 1003.0 |
| 20260902124228 | 60 | 0 | 0.0 | 6.0 | 0.01 | 0.07 | 0.01 | 89 | 1003.2 |
| 20260902123728 | 60 | 198 | 0.0 | 6.0 | 0.01 | 0.07 | 0.01 | 89 | 1003.3 |
| 20260902123228 | 60 | 200 | 2.0 | 5.0 | 0.00 | 0.07 | 0.00 | 88 | 1003.3 |
| 20260902122728 | 60 | 92 | 0.0 | 7.0 | 0.00 | 0.07 | 0.00 | 87 | 1003.3 |
| 20260902122228 | 60 | 165 | 0.0 | 7.0 | 0.00 | 0.07 | 0.00 | 86 | 1003.3 |
| 20260902121728 | 60 | 263 | 0.0 | 7.0 | 0.00 | 0.07 | 0.00 | 86 | 1003.3 |
| 20260902121228 | 60 | 114 | 0.0 | 7.0 | 0.00 | 0.07 | 0.00 | 86 | 1003.3 |
| 20260902120728 | 60 | 120 | 0.0 | 2.0 | 0.00 | 0.07 | 0.00 | 85 | 1003.5 |
| 20260902120228 | 60 | 0 | 0.0 | 8.0 | 0.00 | 0.07 | 0.00 | 85 | 1003.6 |
| 20260902115728 | 60 | 130 | 0.0 | 8.0 | 0.00 | 0.07 | 0.00 | 86 | 1003.5 |
| 20260902115228 | 60 | 92 | 0.0 | 8.0 | 0.00 | 0.07 | 0.00 | 86 | 1003.5 |
| 20260902114728 | 60 | 123 | 1.0 | 6.0 | 0.00 | 0.07 | 0.00 | 86 | 1003.6 |
| 20260902114228 | 60 | 107 | 1.0 | 9.0 | 0.00 | 0.07 | 0.00 | 86 | 1003.7 |
| 20260902113729 | 60 | 86 | 4.0 | 9.0 | 0.00 | 0.07 | 0.00 | 87 | 1003.9 |
| 20260902113228 | 60 | 53 | 4.0 | 9.0 | 0.00 | 0.07 | 0.00 | 87 | 1004.0 |
| 20260902112728 | 60 | 65 | 0.0 | 10.0 | 0.00 | 0.07 | 0.00 | 87 | 1004.0 |
| 20260902112228 | 60 | 147 | 2.0 | 10.0 | 0.00 | 0.07 | 0.00 | 88 | 1004.0 |
| 20260902111728 | 60 | 100 | 1.0 | 10.0 | 0.00 | 0.07 | 0.00 | 88 | 1004.1 |
| 20260902111228 | 60 | 116 | 2.0 | 8.0 | 0.00 | 0.07 | 0.00 | 89 | 1004.2 |
| 20260902110728 | 60 | 142 | 1.0 | 8.0 | 0.00 | 0.07 | 0.00 | 90 | 1004.3 |
| 20260902110228 | 60 | 112 | 0.0 | 8.0 | 0.00 | 0.07 | 0.00 | 90 | 1004.4 |
| 20260902105728 | 60 | 119 | 0.0 | 8.0 | 0.00 | 0.07 | 0.00 | 91 | 1004.5 |
| 20260902105228 | 60 | 57 | 0.0 | 8.0 | 0.00 | 0.07 | 0.00 | 91 | 1004.5 |
| 20260902104728 | 59 | 105 | 0.0 | 8.0 | 0.00 | 0.07 | 0.00 | 92 | 1004.6 |
| 20260902104228 | 60 | 131 | 0.0 | 6.0 | 0.00 | 0.07 | 0.00 | 92 | 1004.6 |
| 20260902103728 | 60 | 207 | 0.0 | 6.0 | 0.00 | 0.07 | 0.00 | 92 | 1004.7 |
| 20260902103228 | 60 | 0 | 0.0 | 3.0 | 0.00 | 0.07 | 0.00 | 92 | 1004.7 |
| 20260902102728 | 60 | 173 | 0.0 | 9.0 | 0.00 | 0.07 | 0.00 | 92 | 1004.9 |
| 20260902102228 | 60 | 107 | 0.0 | 9.0 | 0.00 | 0.07 | 0.00 | 92 | 1004.9 |
| 20260902101728 | 60 | 191 | 0.0 | 9.0 | 0.00 | 0.07 | 0.00 | 92 | 1004.9 |
| 20260902101228 | 60 | 184 | 1.0 | 9.0 | 0.00 | 0.07 | 0.00 | 92 | 1005.2 |
| 20260902100728 | 60 | 228 | 0.0 | 9.0 | 0.00 | 0.07 | 0.00 | 92 | 1005.2 |
| 20260902100228 | 60 | 226 | 2.0 | 9.0 | 0.00 | 0.07 | 0.00 | 93 | 1005.1 |
| 20260902095728 | 60 | 201 | 0.0 | 6.0 | 0.00 | 0.07 | 0.00 | 92 | 1005.2 |
| 20260902095228 | 60 | 182 | 0.0 | 9.0 | 0.00 | 0.07 | 0.00 | 93 | 1005.3 |
| 20260902094729 | 60 | 16 | 0.0 | 9.0 | 0.00 | 0.07 | 0.00 | 93 | 1005.4 |
| 20260902094228 | 60 | 259 | 0.0 | 9.0 | 0.00 | 0.07 | 0.00 | 93 | 1005.4 |
| 20260902093728 | 60 | 92 | 0.0 | 11.0 | 0.00 | 0.07 | 0.00 | 93 | 1005.5 |
| 20260902093228 | 60 | 221 | 0.0 | 11.0 | 0.00 | 0.07 | 0.00 | 93 | 1005.5 |
| 20260902092728 | 60 | 205 | 2.0 | 11.0 | 0.00 | 0.07 | 0.00 | 93 | 1005.6 |
| 20260902092228 | 60 | 196 | 3.0 | 10.0 | 0.00 | 0.07 | 0.00 | 93 | 1005.6 |
| 20260902091728 | 60 | 0 | 0.0 | 5.0 | 0.00 | 0.07 | 0.00 | 93 | 1005.7 |
| 20260902091228 | 60 | 142 | 0.0 | 5.0 | 0.00 | 0.07 | 0.00 | 93 | 1005.7 |
| 20260902090728 | 60 | 68 | 1.0 | 10.0 | 0.00 | 0.07 | 0.00 | 93 | 1005.7 |
| 20260902090228 | 60 | 134 | 0.0 | 10.0 | 0.00 | 0.07 | 0.00 | 92 | 1005.8 |
| 20260902085728 | 60 | 177 | 0.0 | 10.0 | 0.00 | 0.07 | 0.00 | 92 | 1005.8 |
| 20260902085228 | 60 | 229 | 1.0 | 8.0 | 0.00 | 0.07 | 0.00 | 92 | 1006.0 |
| 20260902084728 | 60 | 183 | 0.0 | 7.0 | 0.00 | 0.07 | 0.00 | 92 | 1006.1 |
| 20260902084228 | 60 | 194 | 1.0 | 7.0 | 0.00 | 0.07 | 0.00 | 93 | 1006.1 |
| 20260902083728 | 60 | 224 | 2.0 | 2.0 | 0.00 | 0.07 | 0.00 | 93 | 1006.2 |
| 20260902083228 | 60 | 0 | 0.0 | 0.0 | 0.00 | 0.07 | 0.00 | 94 | 1006.1 |
| 20260902082730 | 60 | 0 | 0.0 | 6.0 | 0.00 | 0.07 | 0.00 | 94 | 1006.1 |
| 20260902082229 | 60 | 98 | 0.0 | 6.0 | 0.00 | 0.07 | 0.00 | 94 | 1006.1 |
| 20260902081728 | 60 | 98 | 0.0 | 6.0 | 0.00 | 0.07 | 0.00 | 94 | 1006.2 |
| 20260902081229 | 60 | 64 | 0.0 | 7.0 | 0.00 | 0.07 | 0.00 | 94 | 1006.2 |
| 20260902080728 | 60 | 203 | 0.0 | 7.0 | 0.00 | 0.07 | 0.00 | 94 | 1006.2 |
| 20260902080228 | 60 | 197 | 0.0 | 7.0 | 0.00 | 0.07 | 0.00 | 93 | 1006.4 |
| 20260902075728 | 60 | 211 | 2.0 | 11.0 | 0.00 | 0.07 | 0.00 | 93 | 1006.4 |
| 20260902075228 | 60 | 183 | 0.0 | 11.0 | 0.00 | 0.07 | 0.00 | 92 | 1006.5 |
| 20260902074728 | 61 | 92 | 0.0 | 11.0 | 0.00 | 0.07 | 0.00 | 91 | 1006.5 |
| 20260902074228 | 61 | 0 | 0.0 | 7.0 | 0.00 | 0.07 | 0.00 | 91 | 1006.6 |
| 20260902073728 | 61 | 207 | 0.0 | 7.0 | 0.00 | 0.07 | 0.00 | 91 | 1006.6 |
| 20260902073228 | 61 | 0 | 1.0 | 6.0 | 0.00 | 0.07 | 0.00 | 91 | 1006.7 |
| 20260902072728 | 61 | 191 | 0.0 | 9.0 | 0.00 | 0.07 | 0.00 | 91 | 1006.7 |
| 20260902072228 | 61 | 74 | 0.0 | 9.0 | 0.00 | 0.07 | 0.00 | 91 | 1006.8 |
| 20260902071728 | 60 | 214 | 0.0 | 9.0 | 0.00 | 0.07 | 0.00 | 92 | 1006.8 |
| 20260902071228 | 60 | 235 | 0.0 | 8.0 | 0.00 | 0.07 | 0.00 | 92 | 1006.9 |
| 20260902070728 | 60 | 233 | 0.0 | 8.0 | 0.00 | 0.07 | 0.00 | 93 | 1006.8 |
| 20260902070228 | 60 | 198 | 0.0 | 4.0 | 0.00 | 0.07 | 0.00 | 93 | 1006.9 |
| 20260902065728 | 60 | 190 | 0.0 | 4.0 | 0.00 | 0.07 | 0.00 | 93 | 1006.9 |
| 20260902065228 | 60 | 163 | 0.0 | 4.0 | 0.00 | 0.07 | 0.00 | 93 | 1007.0 |
| 20260902064728 | 60 | 42 | 0.0 | 4.0 | 0.00 | 0.07 | 0.00 | 94 | 1007.1 |
| 20260902064228 | 60 | 0 | 0.0 | 7.0 | 0.00 | 0.07 | 0.00 | 94 | 1007.1 |
| 20260902063728 | 60 | 61 | 0.0 | 7.0 | 0.00 | 0.07 | 0.00 | 94 | 1007.2 |
| 20260902063228 | 60 | 0 | 0.0 | 7.0 | 0.00 | 0.07 | 0.00 | 94 | 1007.1 |
| 20260902062728 | 60 | 113 | 0.0 | 10.0 | 0.00 | 0.07 | 0.00 | 94 | 1007.1 |
| 20260902062228 | 60 | 0 | 0.0 | 10.0 | 0.00 | 0.07 | 0.00 | 95 | 1007.1 |
| 20260902061728 | 60 | 116 | 0.0 | 10.0 | 0.00 | 0.07 | 0.00 | 95 | 1007.1 |
| 20260902061228 | 60 | 177 | 0.0 | 5.0 | 0.00 | 0.07 | 0.00 | 95 | 1007.1 |
| 20260902060728 | 60 | 155 | 0.0 | 5.0 | 0.00 | 0.07 | 0.00 | 95 | 1007.2 |
| 20260902060228 | 60 | 0 | 0.0 | 5.0 | 0.00 | 0.07 | 0.00 | 95 | 1007.3 |
| 20260902055729 | 60 | 138 | 0.0 | 5.0 | 0.00 | 0.07 | 0.00 | 95 | 1007.3 |
| 20260902055228 | 60 | 165 | 0.0 | 7.0 | 0.00 | 0.07 | 0.00 | 95 | 1007.4 |
| 20260902054728 | 60 | 165 | 0.0 | 7.0 | 0.00 | 0.07 | 0.00 | 95 | 1007.4 |
| 20260902054228 | 60 | 226 | 0.0 | 7.0 | 0.00 | 0.07 | 0.00 | 95 | 1007.4 |
| 20260902053728 | 60 | 0 | 0.0 | 7.0 | 0.00 | 0.07 | 0.00 | 95 | 1007.4 |
| 20260902053228 | 60 | 74 | 0.0 | 7.0 | 0.00 | 0.07 | 0.00 | 95 | 1007.4 |
| 20260902052728 | 61 | 0 | 0.0 | 6.0 | 0.00 | 0.07 | 0.00 | 95 | 1007.5 |
| 20260902052228 | 61 | 135 | 0.0 | 6.0 | 0.00 | 0.07 | 0.00 | 95 | 1007.5 |
| 20260902051728 | 61 | 135 | 1.0 | 6.0 | 0.00 | 0.07 | 0.00 | 95 | 1007.5 |
| 20260902051228 | 61 | 116 | 0.0 | 14.0 | 0.00 | 0.07 | 0.00 | 94 | 1007.5 |
| 20260902050728 | 61 | 250 | 0.0 | 14.0 | 0.00 | 0.07 | 0.00 | 94 | 1007.5 |
| 20260902050228 | 61 | 270 | 0.0 | 14.0 | 0.00 | 0.07 | 0.00 | 93 | 1007.5 |
| 20260902045728 | 61 | 222 | 0.0 | 5.0 | 0.00 | 0.07 | 0.00 | 93 | 1007.5 |
| 20260902045228 | 61 | 224 | 0.0 | 10.0 | 0.00 | 0.07 | 0.00 | 92 | 1007.6 |
| 20260902044728 | 61 | 170 | 0.0 | 10.0 | 0.00 | 0.07 | 0.00 | 92 | 1007.6 |
| 20260902044228 | 61 | 172 | 0.0 | 10.0 | 0.00 | 0.07 | 0.00 | 92 | 1007.7 |
| 20260902043728 | 61 | 200 | 1.0 | 8.0 | 0.00 | 0.07 | 0.00 | 92 | 1007.6 |
| 20260902043228 | 61 | 228 | 1.0 | 7.0 | 0.00 | 0.07 | 0.00 | 92 | 1007.6 |
| 20260902042728 | 61 | 214 | 0.0 | 3.0 | 0.00 | 0.07 | 0.00 | 92 | 1007.8 |
| 20260902042228 | 61 | 205 | 0.0 | 3.0 | 0.00 | 0.07 | 0.00 | 91 | 1007.8 |
| 20260902041728 | 61 | 208 | 0.0 | 10.0 | 0.00 | 0.07 | 0.00 | 91 | 1007.8 |
| 20260902041228 | 61 | 207 | 0.0 | 10.0 | 0.00 | 0.07 | 0.00 | 91 | 1007.8 |
| 20260902040728 | 61 | 169 | 1.0 | 10.0 | 0.00 | 0.07 | 0.00 | 91 | 1007.8 |
| 20260902040228 | 61 | 149 | 3.0 | 6.0 | 0.00 | 0.07 | 0.00 | 90 | 1007.8 |
| 20260902035728 | 61 | 215 | 0.0 | 6.0 | 0.00 | 0.07 | 0.00 | 90 | 1007.7 |
| 20260902035228 | 61 | 0 | 2.0 | 3.0 | 0.00 | 0.07 | 0.00 | 90 | 1007.8 |
| 20260902034728 | 62 | 137 | 0.0 | 12.0 | 0.00 | 0.07 | 0.00 | 89 | 1007.8 |
| 20260902034228 | 62 | 176 | 0.0 | 12.0 | 0.00 | 0.07 | 0.00 | 89 | 1007.8 |
| 20260902033728 | 62 | 189 | 1.0 | 12.0 | 0.00 | 0.07 | 0.00 | 88 | 1007.8 |
| 20260902033228 | 62 | 186 | 3.0 | 8.0 | 0.00 | 0.07 | 0.00 | 88 | 1007.8 |
| 20260902032728 | 62 | 197 | 0.0 | 8.0 | 0.00 | 0.07 | 0.00 | 88 | 1007.8 |
| 20260902032228 | 62 | 247 | 4.0 | 8.0 | 0.00 | 0.07 | 0.00 | 87 | 1007.8 |
| 20260902031728 | 62 | 224 | 2.0 | 8.0 | 0.00 | 0.07 | 0.00 | 87 | 1007.8 |
| 20260902031228 | 62 | 212 | 2.0 | 5.0 | 0.00 | 0.07 | 0.00 | 87 | 1007.8 |
| 20260902030728 | 62 | 198 | 0.0 | 5.0 | 0.00 | 0.07 | 0.00 | 87 | 1007.8 |
| 20260902030228 | 62 | 166 | 0.0 | 3.0 | 0.00 | 0.07 | 0.00 | 87 | 1007.7 |
| 20260902025728 | 62 | 233 | 0.0 | 3.0 | 0.00 | 0.07 | 0.00 | 86 | 1007.8 |
| 20260902025228 | 62 | 0 | 0.0 | 4.0 | 0.00 | 0.07 | 0.00 | 86 | 1007.7 |
| 20260902024728 | 62 | 0 | 0.0 | 4.0 | 0.00 | 0.07 | 0.00 | 86 | 1007.7 |
| 20260902024228 | 63 | 217 | 0.0 | 4.0 | 0.00 | 0.07 | 0.00 | 86 | 1007.7 |
| 20260902023728 | 63 | 0 | 0.0 | 4.0 | 0.00 | 0.07 | 0.00 | 85 | 1007.6 |
| 20260902023228 | 63 | 0 | 0.0 | 4.0 | 0.00 | 0.07 | 0.00 | 85 | 1007.7 |
| 20260902022728 | 63 | 179 | 0.0 | 4.0 | 0.00 | 0.07 | 0.00 | 85 | 1007.7 |
| 20260902022228 | 63 | 0 | 0.0 | 9.0 | 0.00 | 0.07 | 0.00 | 85 | 1007.7 |
| 20260902021728 | 63 | 189 | 0.0 | 9.0 | 0.00 | 0.07 | 0.00 | 84 | 1007.7 |
| 20260902021228 | 63 | 198 | 2.0 | 9.0 | 0.00 | 0.07 | 0.00 | 84 | 1007.7 |
| 20260902020728 | 64 | 0 | 3.0 | 8.0 | 0.00 | 0.07 | 0.00 | 84 | 1007.8 |
| 20260902020228 | 64 | 267 | 0.0 | 8.0 | 0.00 | 0.07 | 0.00 | 84 | 1007.8 |
| 20260902015728 | 64 | 250 | 0.0 | 8.0 | 0.00 | 0.07 | 0.00 | 84 | 1007.8 |
| 20260902015228 | 64 | 224 | 0.0 | 5.0 | 0.00 | 0.07 | 0.00 | 85 | 1007.6 |
| 20260902014728 | 64 | 0 | 0.0 | 4.0 | 0.00 | 0.07 | 0.00 | 85 | 1007.7 |
| 20260902014228 | 64 | 203 | 0.0 | 6.0 | 0.00 | 0.07 | 0.00 | 85 | 1007.6 |
| 20260902013728 | 64 | 0 | 0.0 | 6.0 | 0.00 | 0.07 | 0.00 | 85 | 1007.6 |
| 20260902013228 | 64 | 217 | 0.0 | 6.0 | 0.00 | 0.07 | 0.00 | 85 | 1007.6 |
| 20260902012728 | 64 | 0 | 0.0 | 4.0 | 0.00 | 0.07 | 0.00 | 86 | 1007.7 |
| 20260902012228 | 64 | 187 | 0.0 | 4.0 | 0.00 | 0.07 | 0.00 | 86 | 1007.7 |
| 20260902011728 | 64 | 267 | 0.0 | 8.0 | 0.00 | 0.07 | 0.00 | 86 | 1007.6 |
| 20260902011228 | 64 | 193 | 0.0 | 8.0 | 0.00 | 0.07 | 0.00 | 86 | 1007.6 |
| 20260902010728 | 64 | 257 | 0.0 | 8.0 | 0.00 | 0.07 | 0.00 | 85 | 1007.6 |
| 20260902010228 | 64 | 0 | 0.0 | 5.0 | 0.00 | 0.07 | 0.00 | 86 | 1007.7 |
| 20260902005728 | 64 | 0 | 0.0 | 5.0 | 0.00 | 0.07 | 0.00 | 86 | 1007.7 |
| 20260902005228 | 63 | 288 | 0.0 | 5.0 | 0.00 | 0.07 | 0.00 | 87 | 1007.7 |
| 20260902004728 | 63 | 0 | 1.0 | 9.0 | 0.00 | 0.07 | 0.00 | 86 | 1007.7 |
| 20260902004228 | 63 | 0 | 0.0 | 9.0 | 0.00 | 0.07 | 0.00 | 86 | 1007.7 |
| 20260902003728 | 63 | 232 | 0.0 | 9.0 | 0.00 | 0.07 | 0.00 | 86 | 1007.8 |
| 20260902003228 | 63 | 294 | 0.0 | 7.0 | 0.00 | 0.07 | 0.00 | 85 | 1007.8 |
| 20260902002728 | 63 | 280 | 1.0 | 7.0 | 0.00 | 0.07 | 0.00 | 85 | 1007.9 |
| 20260902002228 | 63 | 231 | 2.0 | 7.0 | 0.00 | 0.07 | 0.00 | 85 | 1008.0 |
| 20260902001728 | 63 | 198 | 0.0 | 6.0 | 0.00 | 0.07 | 0.00 | 85 | 1008.0 |
| 20260902001228 | 63 | 198 | 0.0 | 16.0 | 0.00 | 0.07 | 0.00 | 86 | 1008.0 |
| 20260902000728 | 63 | 233 | 0.0 | 16.0 | 0.00 | 0.07 | 0.00 | 85 | 1008.0 |
| 20260902000228 | 63 | 250 | 3.0 | 16.0 | 0.00 | 0.07 | 0.00 | 84 | 1007.9 |
| 20260901235728 | 63 | 246 | 3.0 | 15.0 | 0.00 | 0.07 | 0.00 | 84 | 1008.0 |
| 20260901235228 | 64 | 242 | 6.0 | 13.0 | 0.00 | 0.07 | 0.00 | 83 | 1008.0 |
| 20260901234728 | 64 | 224 | 4.0 | 13.0 | 0.00 | 0.07 | 0.00 | 82 | 1008.0 |
| 20260901234228 | 64 | 287 | 6.0 | 13.0 | 0.00 | 0.07 | 0.00 | 81 | 1008.0 |
| 20260901233728 | 65 | 296 | 6.0 | 12.0 | 0.00 | 0.07 | 0.00 | 81 | 1008.0 |
| 20260901233228 | 65 | 226 | 3.0 | 11.0 | 0.00 | 0.07 | 0.00 | 81 | 1008.0 |
| 20260901232728 | 65 | 225 | 5.0 | 10.0 | 0.00 | 0.07 | 0.07 | 82 | 1008.0 |
| 20260901232228 | 65 | 254 | 4.0 | 9.0 | 0.00 | 0.07 | 0.07 | 82 | 1008.0 |
| 20260901231728 | 65 | 238 | 3.0 | 13.0 | 0.00 | 0.07 | 0.07 | 83 | 1008.0 |
| 20260901231228 | 64 | 215 | 2.0 | 13.0 | 0.00 | 0.07 | 0.07 | 83 | 1008.0 |
| 20260901230728 | 64 | 245 | 1.0 | 13.0 | 0.00 | 0.07 | 0.07 | 82 | 1008.0 |
| 20260901230228 | 64 | 233 | 7.0 | 11.0 | 0.00 | 0.07 | 0.07 | 82 | 1008.1 |
| 20260901225727 | 64 | 186 | 2.0 | 11.0 | 0.00 | 0.07 | 0.07 | 81 | 1008.1 |
| 20260901225228 | 65 | 329 | 5.0 | 8.0 | 0.00 | 0.07 | 0.07 | 81 | 1008.1 |
| 20260901224728 | 65 | 225 | 6.0 | 9.0 | 0.00 | 0.07 | 0.07 | 80 | 1008.1 |
| 20260901224228 | 65 | 217 | 5.0 | 9.0 | 0.00 | 0.07 | 0.07 | 80 | 1008.1 |
| 20260901223728 | 65 | 246 | 6.0 | 9.0 | 0.00 | 0.07 | 0.07 | 80 | 1008.2 |
| 20260901223228 | 65 | 214 | 2.0 | 9.0 | 0.00 | 0.07 | 0.07 | 80 | 1008.1 |
| 20260901222728 | 65 | 193 | 5.0 | 12.0 | 0.00 | 0.07 | 0.07 | 80 | 1008.1 |
| 20260901222228 | 65 | 228 | 6.0 | 12.0 | 0.00 | 0.07 | 0.07 | 80 | 1008.1 |
| 20260901221728 | 65 | 215 | 4.0 | 12.0 | 0.00 | 0.07 | 0.07 | 80 | 1008.1 |
| 20260901221228 | 66 | 313 | 4.0 | 14.0 | 0.00 | 0.07 | 0.07 | 79 | 1008.2 |
| 20260901220727 | 65 | 268 | 4.0 | 14.0 | 0.00 | 0.07 | 0.07 | 79 | 1008.1 |
| 20260901220227 | 66 | 243 | 3.0 | 14.0 | 0.00 | 0.07 | 0.07 | 79 | 1008.1 |
| 20260901215728 | 66 | 266 | 7.0 | 15.0 | 0.00 | 0.07 | 0.07 | 79 | 1008.2 |
| 20260901215227 | 66 | 246 | 9.0 | 15.0 | 0.00 | 0.07 | 0.07 | 79 | 1008.2 |
| 20260901214728 | 66 | 268 | 9.0 | 15.0 | 0.00 | 0.07 | 0.07 | 79 | 1008.1 |
| 20260901214228 | 65 | 278 | 8.0 | 13.0 | 0.00 | 0.07 | 0.07 | 80 | 1008.1 |
| 20260901213727 | 65 | 296 | 8.0 | 13.0 | 0.00 | 0.07 | 0.07 | 80 | 1008.1 |
| 20260901213227 | 65 | 280 | 6.0 | 14.0 | 0.00 | 0.07 | 0.07 | 80 | 1008.1 |
| 20260901212727 | 65 | 274 | 7.0 | 14.0 | 0.00 | 0.07 | 0.07 | 80 | 1008.1 |
| 20260901212227 | 65 | 215 | 7.0 | 14.0 | 0.00 | 0.07 | 0.07 | 80 | 1008.1 |
| 20260901211727 | 66 | 294 | 6.0 | 12.0 | 0.00 | 0.07 | 0.07 | 79 | 1008.0 |
| 20260901211227 | 66 | 211 | 5.0 | 12.0 | 0.00 | 0.07 | 0.07 | 80 | 1008.0 |
| 20260901210727 | 65 | 287 | 5.0 | 12.0 | 0.00 | 0.07 | 0.07 | 81 | 1008.0 |
| 20260901210227 | 65 | 217 | 4.0 | 9.0 | 0.00 | 0.07 | 0.07 | 82 | 1008.1 |
| 20260901205727 | 65 | 263 | 5.0 | 12.0 | 0.00 | 0.07 | 0.07 | 82 | 1008.1 |
| 20260901205227 | 65 | 252 | 0.0 | 12.0 | 0.00 | 0.07 | 0.07 | 82 | 1008.1 |
| 20260901204727 | 64 | 210 | 6.0 | 12.0 | 0.00 | 0.07 | 0.07 | 84 | 1008.0 |
| 20260901204227 | 64 | 243 | 2.0 | 8.0 | 0.00 | 0.07 | 0.07 | 85 | 1008.0 |
| 20260901203727 | 63 | 217 | 1.0 | 8.0 | 0.00 | 0.07 | 0.07 | 84 | 1008.0 |
| 20260901203227 | 63 | 224 | 0.0 | 8.0 | 0.00 | 0.07 | 0.07 | 84 | 1008.1 |
| 20260901202727 | 63 | 228 | 1.0 | 11.0 | 0.00 | 0.07 | 0.07 | 84 | 1008.1 |
| 20260901202227 | 63 | 274 | 3.0 | 11.0 | 0.00 | 0.07 | 0.07 | 84 | 1008.2 |
| 20260901201727 | 63 | 238 | 4.0 | 11.0 | 0.00 | 0.07 | 0.07 | 84 | 1008.2 |
| 20260901201227 | 63 | 252 | 6.0 | 10.0 | 0.00 | 0.07 | 0.07 | 84 | 1008.3 |
| 20260901200727 | 63 | 257 | 3.0 | 10.0 | 0.00 | 0.07 | 0.07 | 84 | 1008.3 |
| 20260901200227 | 63 | 259 | 2.0 | 11.0 | 0.00 | 0.07 | 0.07 | 84 | 1008.2 |
| 20260901195727 | 63 | 233 | 5.0 | 11.0 | 0.00 | 0.07 | 0.07 | 83 | 1008.2 |
| 20260901195228 | 64 | 257 | 4.0 | 11.0 | 0.00 | 0.07 | 0.07 | 83 | 1008.2 |
| 20260901194727 | 64 | 263 | 6.0 | 15.0 | 0.00 | 0.07 | 0.07 | 83 | 1008.2 |
| 20260901194227 | 64 | 260 | 7.0 | 15.0 | 0.00 | 0.07 | 0.07 | 83 | 1008.2 |
| 20260901193727 | 64 | 245 | 7.0 | 15.0 | 0.00 | 0.07 | 0.07 | 83 | 1008.2 |
| 20260901193227 | 64 | 243 | 6.0 | 13.0 | 0.00 | 0.07 | 0.07 | 84 | 1008.2 |
| 20260901192727 | 64 | 291 | 8.0 | 13.0 | 0.00 | 0.07 | 0.07 | 84 | 1008.2 |
| 20260901192227 | 64 | 261 | 8.0 | 12.0 | 0.00 | 0.07 | 0.07 | 85 | 1008.1 |
| 20260901191727 | 64 | 235 | 4.0 | 12.0 | 0.00 | 0.07 | 0.07 | 84 | 1008.2 |
| 20260901191227 | 64 | 246 | 1.0 | 12.0 | 0.00 | 0.07 | 0.07 | 85 | 1008.2 |
| 20260901190727 | 64 | 264 | 4.0 | 12.0 | 0.00 | 0.07 | 0.07 | 85 | 1008.3 |
| 20260901190227 | 64 | 219 | 7.0 | 11.0 | 0.00 | 0.07 | 0.07 | 86 | 1008.2 |
| 20260901185727 | 64 | 274 | 6.0 | 9.0 | 0.00 | 0.07 | 0.07 | 87 | 1008.2 |
| 20260901185227 | 63 | 278 | 6.0 | 11.0 | 0.00 | 0.07 | 0.07 | 87 | 1008.2 |
| 20260901184727 | 63 | 271 | 1.0 | 11.0 | 0.00 | 0.07 | 0.07 | 87 | 1008.3 |
| 20260901184227 | 63 | 194 | 4.0 | 11.0 | 0.00 | 0.07 | 0.07 | 87 | 1008.3 |
| 20260901183727 | 63 | 197 | 3.0 | 11.0 | 0.00 | 0.07 | 0.07 | 87 | 1008.3 |
| 20260901183227 | 63 | 233 | 0.0 | 11.0 | 0.00 | 0.07 | 0.07 | 89 | 1008.3 |
| 20260901182727 | 63 | 245 | 5.0 | 11.0 | 0.00 | 0.07 | 0.07 | 90 | 1008.2 |
| 20260901182227 | 63 | 235 | 6.0 | 9.0 | 0.00 | 0.07 | 0.07 | 91 | 1008.2 |
| 20260901181727 | 63 | 291 | 2.0 | 8.0 | 0.00 | 0.07 | 0.07 | 92 | 1008.2 |
| 20260901181227 | 63 | 226 | 0.0 | 8.0 | 0.00 | 0.07 | 0.07 | 91 | 1008.2 |
| 20260901180727 | 63 | 261 | 0.0 | 8.0 | 0.00 | 0.07 | 0.07 | 91 | 1008.2 |
| 20260901180227 | 63 | 243 | 3.0 | 13.0 | 0.00 | 0.07 | 0.07 | 92 | 1008.2 |
| 20260901175727 | 63 | 280 | 1.0 | 13.0 | 0.00 | 0.07 | 0.07 | 92 | 1008.2 |
| 20260901175227 | 64 | 243 | 7.0 | 13.0 | 0.00 | 0.07 | 0.07 | 93 | 1008.2 |
| 20260901174727 | 64 | 277 | 4.0 | 6.0 | 0.00 | 0.07 | 0.07 | 95 | 1008.2 |
| 20260901174227 | 64 | 235 | 1.0 | 2.0 | 0.00 | 0.07 | 0.07 | 96 | 1008.1 |
| 20260901173727 | 64 | 0 | 0.0 | 0.0 | 0.00 | 0.07 | 0.07 | 96 | 1008.1 |
| 20260901173227 | 64 | 0 | 0.0 | 0.0 | 0.00 | 0.07 | 0.07 | 97 | 1008.1 |
| 20260901172819 | 64 | 0 | 0.0 | 0.0 | 0.00 | 0.07 | 0.07 | 97 | 1008.0 |
| 20260901172727 | 64 | 0 | 0.0 | 0.0 | 0.00 | 0.07 | 0.07 | 97 | 1008.0 |
| 20260901172227 | 64 | 0 | 0.0 | 0.0 | 0.00 | 0.07 | 0.07 | 97 | 1007.9 |
| 20260901171727 | 64 | 0 | 0.0 | 0.0 | 0.00 | 0.07 | 0.07 | 98 | 1007.8 |
| 20260901171227 | 63 | 0 | 0.0 | 0.0 | 0.00 | 0.07 | 0.07 | 98 | 1007.8 |
| 20260901170727 | 63 | 0 | 0.0 | 0.0 | 0.00 | 0.07 | 0.07 | 99 | 1007.9 |
| 20260901170227 | 63 | 0 | 0.0 | 0.0 | 0.00 | 0.07 | 0.07 | 99 | 1007.9 |
| 20260901165727 | 62 | 0 | 0.0 | 0.0 | 0.00 | 0.07 | 0.07 | 99 | 1008.0 |
| 20260901165227 | 62 | 0 | 0.0 | 0.0 | 0.00 | 0.07 | 0.07 | 99 | 1007.9 |
| 20260901164727 | 61 | 0 | 0.0 | 0.0 | 0.00 | 0.07 | 0.07 | 99 | 1007.9 |
| 20260901164227 | 61 | 0 | 0.0 | 0.0 | 0.00 | 0.07 | 0.07 | 99 | 1008.0 |
| 20260901163727 | 61 | 0 | 0.0 | 0.0 | 0.00 | 0.07 | 0.07 | 99 | 1008.0 |
| 20260901163229 | 61 | 0 | 0.0 | 0.0 | 0.00 | 0.07 | 0.07 | 99 | 1008.0 |
| 20260901162727 | 61 | 0 | 0.0 | 0.0 | 0.00 | 0.07 | 0.07 | 99 | 1008.0 |
| 20260901162227 | 61 | 0 | 0.0 | 0.0 | 0.00 | 0.07 | 0.07 | 99 | 1008.0 |
| 20260901161727 | 61 | 0 | 0.0 | 0.0 | 0.00 | 0.07 | 0.07 | 99 | 1008.1 |
| 20260901161228 | 61 | 0 | 0.0 | 0.0 | 0.00 | 0.07 | 0.07 | 99 | 1008.1 |
| 20260901160727 | 60 | 0 | 0.0 | 0.0 | 0.00 | 0.07 | 0.07 | 99 | 1008.1 |
| 20260901160227 | 60 | 0 | 0.0 | 0.0 | 0.01 | 0.07 | 0.07 | 99 | 1008.0 |
| 20260901155727 | 60 | 0 | 0.0 | 0.0 | 0.01 | 0.07 | 0.07 | 99 | 1008.0 |
| 20260901155227 | 60 | 0 | 0.0 | 0.0 | 0.02 | 0.07 | 0.07 | 99 | 1008.0 |
| 20260901154727 | 60 | 0 | 0.0 | 0.0 | 0.02 | 0.07 | 0.07 | 99 | 1008.0 |
| 20260901154227 | 60 | 0 | 0.0 | 0.0 | 0.03 | 0.07 | 0.07 | 99 | 1008.0 |
| 20260901153727 | 60 | 0 | 0.0 | 0.0 | 0.03 | 0.07 | 0.07 | 99 | 1008.1 |
| 20260901153227 | 60 | 0 | 0.0 | 0.0 | 0.04 | 0.07 | 0.07 | 99 | 1008.0 |
| 20260901152727 | 60 | 0 | 0.0 | 0.0 | 0.04 | 0.07 | 0.07 | 99 | 1008.0 |
| 20260901152227 | 59 | 0 | 0.0 | 0.0 | 0.04 | 0.07 | 0.07 | 99 | 1008.1 |
| 20260901151727 | 59 | 0 | 0.0 | 0.0 | 0.04 | 0.07 | 0.07 | 99 | 1008.0 |
| 20260901151227 | 59 | 0 | 0.0 | 0.0 | 0.04 | 0.07 | 0.07 | 99 | 1008.0 |
| 20260901150727 | 60 | 0 | 0.0 | 2.0 | 0.04 | 0.07 | 0.07 | 99 | 1008.1 |
| 20260901150227 | 59 | 0 | 0.0 | 2.0 | 0.03 | 0.06 | 0.06 | 99 | 1008.0 |
| 20260901145727 | 59 | 176 | 0.0 | 2.0 | 0.03 | 0.06 | 0.06 | 99 | 1007.9 |
| 20260901145227 | 59 | 0 | 0.0 | 0.0 | 0.02 | 0.06 | 0.06 | 99 | 1007.9 |
| 20260901144727 | 59 | 0 | 0.0 | 0.0 | 0.02 | 0.05 | 0.05 | 99 | 1008.0 |
| 20260901144227 | 59 | 0 | 0.0 | 0.0 | 0.01 | 0.04 | 0.04 | 99 | 1007.9 |
| 20260901143727 | 59 | 0 | 0.0 | 0.0 | 0.01 | 0.04 | 0.04 | 99 | 1007.9 |
| 20260901143227 | 59 | 0 | 0.0 | 0.0 | 0.00 | 0.04 | 0.04 | 99 | 1007.9 |
| 20260901142727 | 59 | 0 | 0.0 | 0.0 | 0.00 | 0.03 | 0.03 | 99 | 1007.9 |
| 20260901142227 | 59 | 0 | 0.0 | 0.0 | 0.01 | 0.03 | 0.03 | 99 | 1007.8 |
| 20260901141820 | 59 | 0 | 0.0 | 0.0 | 0.01 | 0.03 | 0.03 | 99 | 1007.8 |
| 20260901141728 | 59 | 0 | 0.0 | 0.0 | 0.01 | 0.03 | 0.03 | 99 | 1007.8 |
| 20260901141227 | 59 | 0 | 0.0 | 0.0 | 0.01 | 0.03 | 0.03 | 99 | 1007.7 |
| 20260901140727 | 59 | 0 | 0.0 | 0.0 | 0.01 | 0.03 | 0.03 | 99 | 1007.6 |
| 20260901140227 | 59 | 0 | 0.0 | 0.0 | 0.01 | 0.03 | 0.03 | 98 | 1007.6 |
| 20260901135727 | 59 | 0 | 0.0 | 0.0 | 0.01 | 0.03 | 0.03 | 98 | 1007.6 |
| 20260901135227 | 59 | 0 | 0.0 | 0.0 | 0.02 | 0.03 | 0.03 | 98 | 1007.5 |